This demonstration page uses our WeatherBlox Daily Observations layout. Learn more.

Left ArrowRight Arrow

38.83388, -104.82136

Hourly Observations for November 6, 2019

Temp ( °F °C ) Dew Point ( °F °C ) Humidity (%) Winds ( mph kmh ) Pressure ( in mb ) Visibility ( mi km ) Precip ( " mm )
12:58 am 00:58 Clear 42 5.8 21 -6.3 42 42 Calm 29.76 1008 10 16 0.00 0.00
1:58 am 01:58 Clear 43 6.3 19 -7.1 38 38 SW 3 6 29.75 1007 10 16 0.00 0.00
2:58 am 02:58 Clear 43 5.9 21 -6.1 42 42 Calm 29.77 1008 10 16 0.00 0.00
3:58 am 03:58 Clear 42 5.8 20 -6.5 41 41 Calm 29.77 1008 10 16 0.00 0.00
4:58 am 04:58 Clear 42 5.3 19 -7.2 40 40 Calm 30.03 1017 10 16 0.00 0.00
5:58 am 05:58 Clear 42 5.7 18 -8 37 37 Calm 30.02 1017 10 16 0.00 0.00
6:58 am 06:58 Sunny 49 9.2 14 -10.2 24 24 SSW 6 9 29.79 1009 10 16 0.00 0.00
7:58 am 07:58 Partly Cloudy 51 10.8 19 -7.2 28 28 SSE 7 11 29.80 1009 10 16 0.00 0.00
9:58 am 09:58 Sunny 55 13 12 -11.2 18 18 Calm 29.78 1009 10 16 0.00 0.00
10:58 am 10:58 Sunny 56 13.5 13 -10.7 18 18 SE 8 13 29.84 1010 10 16 0.00 0.00
11:58 am 11:58 Mostly Sunny 58 14.3 14 -10 18 18 ESE 9 15 29.74 1007 10 16 0.00 0.00
12:58 pm 12:58 Mostly Cloudy 56 13.6 13 -10.5 18 18 SSE 9 15 29.72 1006 10 16 0.00 0.00
1:58 pm 13:58 Sunny 56 13.1 15 -9.4 20 20 S 3 6 29.72 1006 10 16 0.00 0.00
2:58 pm 14:58 Sunny 54 12.1 17 -8.1 24 24 Calm 29.76 1008 10 16 0.00 0.00
3:50 pm 15:50 Sunny 39 4 32 0 75 75 NNW 15 24 29.84 1011 10 16 0.00 0.00
3:58 pm 15:58 Sunny 38 3.5 31 -0.3 76 76 NNW 13 20 29.84 1011 10 16 0.00 0.00
5:58 pm 17:58 Mostly Cloudy 32 -0.2 29 -1.5 91 91 NNW 14 22 29.93 1014 9 14 0.00 0.00
6:47 pm 18:47 Mostly Cloudy 30 -1 28 -2 93 93 undefined N/A 29.96 1015 7 11 0.00 0.00
6:52 pm 18:52 Partly Cloudy 30 -1 28 -2 93 93 NNW 10 17 29.95 1014 8 13 0.00 0.00
6:58 pm 18:58 Partly Cloudy 30 -1.3 28 -2.2 94 94 NNW 10 17 29.96 1014 7 11 0.00 0.00
7:08 pm 19:08 Mostly Cloudy 30 -1 28 -2 93 93 N 6 9 30.31 1026 8 13 0.00 0.00
7:43 pm 19:43 Cloudy 30 -1 28 -2 93 93 NW 5 7 29.97 1015 10 16 0.00 0.00
7:58 pm 19:58 Mostly Cloudy 29 -1.4 28 -2.4 93 93 N 3 6 29.98 1015 10 16 0.00 0.00
8:38 pm 20:38 Mostly Cloudy 30 -1 28 -2 93 93 SE 7 11 30.36 1028 10 16 0.00 0.00
8:41 pm 20:41 Mostly Cloudy with Light Snow 28 -2 27 -3 93 93 SSE 9 15 30.00 1016 1 2 0.00 0.00
8:56 pm 20:56 Mostly Cloudy with Freezing Fog 28 -2 27 -3 93 93 SSE 8 13 30.40 1029 0 0 0.00 0.00
8:58 pm 20:58 Mostly Cloudy with Freezing Fog 28 -2.5 26 -3.1 96 96 SSE 7 11 30.41 1030 0 0 0.00 0.00
9:42 pm 21:42 Mostly Cloudy with Light Snow 25 -4 25 -4 100 100 SSE 13 20 30.01 1016 1 2 0.00 0.00
9:57 pm 21:57 Mostly Cloudy with Light Freezing Rain 25 -4 25 -4 100 100 SSE 15 24 30.01 1016 1 2 0.00 0.00
9:58 pm 21:58 Mostly Cloudy with Light Freezing Rain 25 -3.7 25 -4 98 98 SSE 15 24 30.01 1016 1 2 0.00 0.00
10:58 pm 22:58 Mostly Cloudy with Light Freezing Rain 25 -3.8 25 -4.1 98 98 S 9 15 30.03 1017 1 2 0.00 0.00
11:24 pm 23:24 Mostly Cloudy with Light Snow 25 -4 25 -4 100 100 S 9 15 30.03 1017 1 2 0.00 0.00
11:55 pm 23:55 Mostly Cloudy with Light Freezing Rain 27 -3 25 -4 93 93 S 9 15 30.02 1017 1 2 0.00 0.00
11:58 pm 23:58 Mostly Cloudy with Light Freezing Rain 26 -3.5 25 -3.8 98 98 SSE 8 13 30.02 1017 1 2 0.00 0.00

Powered by AerisWeather